Skip Page Navigation
NASA JPL Caltech
NASA Logo - Jet Propulsion Laboratory + View the NASA Portal
+ Near-Earth Object (NEO) Program
Search JPL
JPL Home Earth Solar System Stars & Galaxies Technology
JPL Solar System Dynamics
BODIES ORBITS EPHEMERIDES TOOLS PHYSICAL DATA DISCOVERY FAQ SITE MAP
JPL Small-Body Database Browser
Search: [ help ]  
8336 Safarik (1984 SK1)
Classification: Main-belt Asteroid          SPK-ID: 2008336
Ephemeris | Orbit Diagram | Orbital Elements | Physical Parameters | Discovery Circumstances | Close-Approach Data ]

[ show orbit diagram ]
Orbital Elements at Epoch 2457000.5 (2014-Dec-09.0) TDB
Reference: JPL 11 (heliocentric ecliptic J2000)
 Element Value Uncertainty (1-sigma)   Units 
e .2984894706438517 6.5218e-08  
a 3.081716679151408 2.6974e-08 AU
q 2.161856698917176 2.0263e-07 AU
i 6.072226089843392 6.8622e-06 deg
node 343.8855387046304 5.3919e-05 deg
peri 329.4929339312873 5.4589e-05 deg
M 229.138479667162 1.0741e-05 deg
tp 2457718.785254536835
(2016-Nov-26.28525454)
6.4409e-05 JED
period 1976.002502306041
5.41
2.5943e-05
7.103e-08
d
yr
n .1821860041067112 2.392e-09 deg/d
Q 4.00157665938564 3.5025e-08 AU
  Orbit Determination Parameters
   # obs. used (total)      919  
   data-arc span      10834 days (29.66 yr)  
   first obs. used      1984-09-27  
   last obs. used      2014-05-27  
   planetary ephem.      DE431  
   SB-pert. ephem.      SB431-BIG16  
   condition code      0  
   fit RMS      .54111  
   data source      ORB  
   producer      Otto Matic  
   solution date      2014-Jun-16 13:39:35  

Additional Information
 Earth MOID = 1.15164 AU 
 T_jup = 3.149 
[ show covariance matrix ]

Ephemeris | Orbit Diagram | Orbital Elements | Physical Parameters | Discovery Circumstances | Close-Approach Data ]

Physical Parameter Table
Parameter Symbol Value Units Sigma Reference Notes
absolute magnitude H 13.4 mag n/a MPO259400  

8336 Šafařík           Discovered 1984 Sept. 27 by A. Mrkos at Klet.
Named in memory of Vojtěch Šafařík (1829-1902), known for his work in inorganic chemistry, Czech chemical nomenclature and textbooks, as well as for his observations of variable stars. He obtained about 20~000 observations of variable stars. This minor planet also honors the memory of his wife and co-worker Paulína Šafaříková (1836-1920), who was interested in the history and popularization of astronomy. Name suggested by J. Ticha and M. Tichy.
NOTE: some special characters may not display properly (any characters within {} are an attempt to place the proper accent above a character)
Reference: 19990402/MPCPages.arcLast Updated: 2010-06-11

[ show close-approach data ]
Alternate Designations
 1984 SK1 = 1984 QB1 = 1984 UT2 = 1995 UJ 
Ephemeris | Orbit Diagram | Orbital Elements | Physical Parameters | Discovery Circumstances | Close-Approach Data ]
ABOUT SSD CREDITS/AWARDS PRIVACY/COPYRIGHT GLOSSARY LINKS
FirstGov 2014-Oct-01 08:12 UT
(server date/time)  
NASA Home Page
Site Manager:   Donald K. Yeomans
Webmaster  Alan B. Chamberlin